G4MDP-13 Weather Reports


time (UTC)temp
F
wind
direction
speed
knots
gust
knots
rain 1hr
in
rain 24hr
in
rain mn
in
humidity
%
barometer
mb
20260505180421 60 155 3.5 4.3 0.00 0.00 0.00 55 1004.8
20260505180418 60 155 3.5 4.3 0.00 0.00 0.00 55 1004.8
20260505174918 60 157 3.5 5.2 0.00 0.00 0.00 61 1004.8
20260505173517 61 159 3.5 4.3 0.00 0.00 0.00 62 1004.8
20260505173420 61 158 3.5 4.3 0.00 0.00 0.00 62 1004.9
20260505173418 61 158 3.5 4.3 0.00 0.00 0.00 62 1004.9
20260505171918 60 158 3.5 4.3 0.00 0.00 0.00 58 1005.0
20260505170517 60 161 3.5 5.2 0.00 0.00 0.00 59 1005.0
20260505170420 60 161 3.5 5.2 0.00 0.00 0.00 59 1005.0
20260505170418 60 161 3.5 5.2 0.00 0.00 0.00 59 1005.0
20260505164918 61 157 3.5 8.7 0.00 0.00 0.00 63 1005.1
20260505163517 62 157 3.5 5.2 0.00 0.00 0.00 44 1004.9
20260505163418 62 158 3.5 5.2 0.00 0.00 0.00 45 1004.8
20260505161918 62 159 2.6 5.2 0.00 0.00 0.00 54 1004.8
20260505160517 62 161 3.5 4.3 0.00 0.00 0.00 56 1004.9
20260505160420 62 161 3.5 4.3 0.00 0.00 0.00 55 1004.9
20260505160418 62 161 3.5 4.3 0.00 0.00 0.00 55 1004.9
20260505151918 63 158 3.5 7.0 0.00 0.00 0.00 55 1004.8
20260505150517 63 154 2.6 5.2 0.00 0.00 0.00 42 1005.0
20260505150420 64 153 2.6 5.2 0.00 0.00 0.00 42 1005.0
20260505150418 64 153 2.6 5.2 0.00 0.00 0.00 42 1005.0
20260505140518 64 165 3.5 5.2 0.00 0.00 0.00 40 1005.0
20260505140420 64 163 3.5 5.2 0.00 0.00 0.00 41 1005.1
20260505140418 64 163 3.5 5.2 0.00 0.00 0.00 41 1005.1
20260505124918 64 147 2.6 5.2 0.00 0.00 0.00 48 1005.3
20260505123517 64 155 2.6 4.3 0.00 0.00 0.00 47 1005.3
20260505123421 65 153 2.6 4.3 0.00 0.00 0.00 47 1005.2
20260505123418 65 153 2.6 4.3 0.00 0.00 0.00 47 1005.2
20260505121918 64 160 2.6 4.3 0.00 0.00 0.00 49 1005.4
20260505120517 66 169 2.6 4.3 0.00 0.00 0.00 47 1005.6
20260505120420 65 166 2.6 4.3 0.00 0.00 0.00 47 1005.6
20260505120418 65 166 2.6 4.3 0.00 0.00 0.00 47 1005.6
20260505114918 61 152 2.6 6.1 0.00 0.00 0.00 52 1005.8
20260505113517 61 159 2.6 5.2 0.00 0.00 0.00 54 1005.6
20260505113420 61 159 2.6 5.2 0.00 0.00 0.00 54 1005.6
20260505113418 61 159 2.6 5.2 0.00 0.00 0.00 54 1005.6
20260505111918 60 135 2.6 4.3 0.00 0.00 0.00 58 1005.8
20260505110517 60 116 2.6 5.2 0.00 0.00 0.00 58 1005.9
20260505110418 60 113 2.6 5.2 0.00 0.00 0.00 58 1006.0
20260505101918 60 162 2.6 4.3 0.00 0.00 0.00 61 1005.8
20260505101118 60 151 2.6 5.2 0.00 0.00 0.00 61 1005.6
20260505100718 60 147 2.6 5.2 0.00 0.00 0.00 59 1005.7
20260505100518 61 139 2.6 5.2 0.00 0.00 0.00 58 1005.9
20260505100353 61 138 2.6 5.2 0.00 0.00 0.00 58 1005.7
20260505100350 61 138 2.6 5.2 0.00 0.00 0.00 58 1005.7
20260505094851 60 128 2.6 5.2 0.00 0.00 0.00 59 1005.9
20260505093450 60 140 2.6 5.2 0.00 0.00 0.00 58 1005.9
20260505093353 60 138 2.6 5.2 0.00 0.00 0.00 58 1005.8
20260505093351 60 138 2.6 5.2 0.00 0.00 0.00 58 1005.8
20260505091851 60 148 2.6 7.0 0.00 0.00 0.00 57 1006.0
20260505090450 60 130 2.6 4.3 0.00 0.00 0.00 56 1006.2
20260505090351 60 131 2.6 5.2 0.00 0.00 0.00 57 1006.3
20260505084850 60 120 1.7 6.1 0.00 0.00 0.00 58 1006.1
20260505083450 58 126 2.6 6.1 0.00 0.00 0.00 63 1006.0
20260505083350 58 123 2.6 6.1 0.00 0.00 0.00 62 1006.0
20260505081850 57 126 2.6 5.2 0.00 0.00 0.00 68 1006.1
20260505080450 57 110 2.6 5.2 0.00 0.00 0.00 69 1006.3
20260505080350 57 105 2.6 5.2 0.00 0.00 0.00 68 1006.2
20260505074850 58 133 2.6 5.2 0.00 0.00 0.00 71 1006.0
20260505073450 56 142 2.6 7.0 0.00 0.00 0.00 75 1006.3
20260505073350 56 142 2.6 7.0 0.00 0.00 0.00 74 1006.4
20260505071850 55 124 2.6 5.2 0.00 0.00 0.00 79 1006.2
20260505070450 54 132 3.5 5.2 0.00 0.00 0.00 81 1006.4
20260505070350 54 136 3.5 5.2 0.00 0.00 0.00 81 1006.4
20260505064850 54 149 3.5 5.2 0.00 0.00 0.00 82 1006.4
20260505063450 54 129 3.5 4.3 0.00 0.00 0.00 83 1006.5
20260505063350 54 129 2.6 4.3 0.00 0.00 0.00 82 1006.7
20260505061850 54 153 3.5 5.2 0.00 0.00 0.00 83 1006.7
20260505060450 53 132 2.6 5.2 0.00 0.00 0.00 85 1012.7
20260505060350 53 134 2.6 5.2 0.00 0.00 0.00 85 1012.7
20260505054850 53 152 3.5 5.2 0.00 0.00 0.00 85 1006.6
20260505053450 53 145 3.5 4.3 0.00 0.00 0.00 85 1012.6
20260505053350 53 145 3.5 4.3 0.00 0.00 0.00 85 1006.5
20260505051850 53 141 3.5 7.0 0.00 0.00 0.00 86 1012.6
20260505050450 52 150 3.5 5.2 0.00 0.00 0.00 87 1012.7
20260505050350 52 150 3.5 5.2 0.00 0.00 0.00 87 1012.7
20260505040450 53 143 3.5 4.3 0.00 0.00 0.00 88 1006.4
20260505040350 53 141 3.5 4.3 0.00 0.00 0.00 88 1006.4
20260505034850 53 145 3.5 4.3 0.00 0.00 0.00 89 1007.0
20260505033450 53 148 3.5 4.3 0.00 0.00 0.00 89 1013.1
20260505033350 53 148 3.5 4.3 0.00 0.00 0.00 89 1013.1
20260505031851 53 148 3.5 4.3 0.00 0.00 0.00 89 1007.3
20260505030450 53 152 3.5 4.3 0.00 0.00 0.00 89 1007.1
20260505030350 53 151 3.5 4.3 0.00 0.00 0.00 89 1007.1
20260505024850 53 151 3.5 4.3 0.00 0.00 0.00 88 1006.9
20260505023450 53 152 3.5 5.2 0.00 0.00 0.00 89 1007.0
20260505023350 53 153 3.5 5.2 0.00 0.00 0.00 89 1007.0
20260505021850 53 154 3.5 5.2 0.00 0.00 0.00 88 1007.2
20260505020450 54 156 3.5 5.2 0.00 0.00 0.00 88 1007.2
20260505020350 54 156 3.5 5.2 0.00 0.00 0.00 88 1007.2
20260505014850 54 155 3.5 4.3 0.00 0.00 0.00 88 1007.1
20260505013450 54 157 3.5 5.2 0.00 0.00 0.00 88 1007.4
20260505013350 54 157 3.5 5.2 0.00 0.00 0.00 88 1007.4
20260505011850 54 155 3.5 4.3 0.00 0.00 0.00 89 1007.6
20260505010450 54 155 3.5 6.1 0.00 0.00 0.00 88 1007.2
20260505010350 54 155 3.5 6.1 0.00 0.00 0.00 88 1007.2
20260505004851 55 153 3.5 5.2 0.00 0.00 0.00 87 1007.5
20260505003450 55 153 4.3 5.2 0.00 0.00 0.00 87 1008.0
20260505003350 55 153 4.3 5.2 0.00 0.00 0.00 87 1014.2
20260505001850 55 153 3.5 5.2 0.00 0.00 0.00 86 1007.9
20260505000450 55 153 3.5 4.3 0.00 0.00 0.00 86 1008.1
20260505000351 55 153 3.5 4.3 0.00 0.00 0.00 86 1008.1
20260504234850 55 153 3.5 5.2 0.00 0.00 0.00 86 1007.8
20260504233450 55 150 3.5 4.3 0.00 0.00 0.00 86 1007.7
20260504233350 55 152 3.5 4.3 0.00 0.00 0.00 86 1007.9
20260504231850 55 155 3.5 5.2 0.00 0.00 0.00 86 1007.8
20260504230450 55 154 3.5 5.2 0.00 0.00 0.00 87 1007.6
20260504230350 55 153 3.5 5.2 0.00 0.00 0.00 87 1007.8
20260504224850 55 154 3.5 4.3 0.00 0.00 0.00 87 1007.9
20260504223450 55 151 3.5 5.2 0.00 0.00 0.00 88 1014.0
20260504223350 55 150 3.5 5.2 0.00 0.00 0.00 88 1014.0
20260504221850 55 152 3.5 5.2 0.00 0.00 0.00 90 1014.4
20260504220450 55 150 3.5 4.3 0.00 0.00 0.00 92 1014.3
20260504220350 55 148 3.5 4.3 0.00 0.00 0.00 92 1014.3
20260504214850 54 152 3.5 4.3 0.00 0.00 0.00 93 1008.2
20260504213450 54 155 3.5 4.3 0.00 0.00 0.00 93 1014.4
20260504213351 54 156 3.5 4.3 0.00 0.00 0.00 93 1014.3
20260504211850 53 155 3.5 4.3 0.00 0.00 0.00 93 1014.3
20260504210450 53 155 3.5 4.3 0.00 0.00 0.00 92 1014.0
20260504210350 53 155 3.5 4.3 0.00 0.00 0.00 92 1008.0
20260504204850 53 154 3.5 4.3 0.00 0.00 0.00 92 1008.1
20260504203450 53 156 3.5 4.3 0.00 0.00 0.00 91 1008.3
20260504203351 53 155 3.5 4.3 0.00 0.00 0.00 91 1008.3
20260504201850 54 155 3.5 4.3 0.00 0.00 0.00 90 1008.0
20260504200450 54 156 3.5 4.3 0.00 0.00 0.00 90 1007.9
20260504200350 54 156 3.5 4.3 0.00 0.00 0.00 90 1007.9
20260504194850 54 157 3.5 4.3 0.00 0.00 0.00 89 1007.9
20260504193450 54 158 3.5 4.3 0.00 0.00 0.00 89 1007.8
20260504193351 55 157 3.5 4.3 0.00 0.00 0.00 89 1007.7
20260504191850 55 158 3.5 5.2 0.00 0.00 0.00 86 1007.6
20260504190450 56 159 3.5 4.3 0.00 0.00 0.00 85 1007.5
20260504190350 56 159 3.5 4.3 0.00 0.00 0.00 85 1007.6
20260504184850 57 159 3.5 5.2 0.00 0.00 0.00 83 1007.5
20260504183450 57 159 4.3 5.2 0.00 0.00 0.00 83 1007.4
20260504183350 57 159 4.3 5.2 0.00 0.00 0.00 83 1007.4
20260504181850 58 159 3.5 5.2 0.00 0.00 0.00 82 1007.5